Wind_Speed
5 3 1 1 0 1 3 3 3 3 4 4 4 4 3 3 4 5 5 5 5 5 5 6 6 6 6 7 8 9 10 10 10 10 10 10 10 11 11 12 13 14 15 15 15 15 14 14 13
7 4 2 1 1 1 2 3 3 4 4 4 3 3 3 3 4 4 4 5 5 5 5 5 5 6 6 7 8 9 10 10 10 10 10 10 10 10 11 12 12 13 15 15 16 16 16 15 15
8 6 4 3 2 1 2 3 3 4 4 4 3 3 3 4 4 4 4 4 4 4 5 5 5 6 7 8 8 9 9 9 9 9 9 10 10 11 12 12 13 13 14 15 16 16 16 16 16
10 8 7 6 4 3 1 2 4 3 3 3 3 3 4 4 4 4 3 3 4 4 4 5 6 7 7 7 8 8 8 9 9 9 10 10 11 12 12 13 13 14 14 15 15 15 16 16 16
12 10 9 7 6 5 4 3 4 3 3 3 3 4 5 4 4 3 3 3 4 4 5 5 6 6 6 7 7 8 8 9 9 10 10 10 11 12 13 13 13 13 13 14 15 15 15 16 16
14 12 10 9 8 6 5 4 5 4 4 3 3 4 4 4 3 3 3 4 4 4 5 6 6 6 6 6 7 8 9 9 9 10 11 12 12 13 13 13 13 13 13 14 14 15 15 16 16
15 14 12 10 8 7 6 6 5 5 4 4 4 4 4 4 4 4 4 4 4 5 5 5 5 6 6 7 7 8 9 9 10 11 12 13 13 13 13 13 13 14 14 14 14 14 15 16 16
14 14 13 11 10 8 7 7 6 6 5 5 5 5 5 4 5 4 4 4 5 5 5 5 6 6 7 7 8 9 9 10 11 12 13 14 14 14 14 14 14 14 14 14 14 14 14 15 15
16 15 13 12 11 9 7 7 7 7 6 6 5 5 6 6 5 5 4 5 5 6 6 5 6 7 7 8 9 9 10 11 12 13 14 14 15 15 14 14 14 14 14 14 14 14 14 15 15
17 16 14 13 12 10 8 7 7 7 7 6 6 6 6 6 6 6 5 5 5 6 6 6 7 7 8 8 9 10 10 11 12 13 14 14 15 15 14 14 15 15 15 15 15 15 15 15 16
18 17 15 13 12 11 9 8 8 7 7 7 8 8 7 7 7 7 7 6 6 7 7 7 7 8 8 9 9 10 11 12 13 14 14 14 15 15 15 15 15 15 15 15 15 15 15 16 16
17 16 15 13 11 11 10 9 9 8 8 8 8 8 8 8 7 7 7 7 8 7 7 7 8 8 8 9 10 11 12 13 13 14 14 15 15 15 15 15 15 15 15 15 15 15 15 16 16
17 16 15 13 12 11 10 10 9 9 8 8 9 10 9 7 7 8 8 8 8 8 8 8 8 8 9 9 10 11 12 13 13 14 14 15 15 15 16 16 16 16 15 15 15 15 14 15 15
17 16 14 13 12 11 9 9 9 9 10 10 10 10 10 8 8 8 8 9 8 9 9 9 8 8 9 10 11 11 12 13 14 14 15 15 15 16 16 16 16 16 16 15 15 14 14 14 14
17 16 15 14 13 11 10 9 9 10 11 10 10 9 9 9 8 8 9 9 9 9 9 9 9 9 10 11 11 12 13 13 14 14 15 15 16 16 16 16 16 16 15 15 14 13 13 13 13
17 16 15 13 13 11 11 10 10 10 10 10 9 8 8 8 7 8 9 9 9 10 10 9 9 10 10 11 12 12 13 13 14 15 15 15 16 16 16 16 16 16 15 14 13 12 12 12 12
16 15 14 13 12 11 10 9 10 10 9 8 8 7 6 6 7 8 9 9 9 10 10 9 9 10 10 11 12 12 13 13 14 14 15 15 16 16 16 16 15 15 14 13 12 12 11 11 11
15 14 13 12 11 10 9 9 10 9 8 8 7 6 6 7 7 8 9 9 9 9 10 10 9 10 10 11 11 12 13 13 14 14 14 15 15 16 16 16 15 15 14 13 12 11 11 11 11
15 13 13 12 11 9 8 9 8 7 6 6 5 5 6 6 6 7 8 8 9 9 9 10 10 10 10 11 11 12 13 13 13 14 14 15 15 16 16 16 16 15 14 12 11 10 10 10 10
14 12 12 11 10 9 8 7 7 6 5 5 6 6 5 5 6 7 7 8 8 9 9 9 9 10 10 11 11 12 13 13 13 14 14 15 16 16 16 16 15 14 13 12 11 10 9 9 9
13 11 10 9 9 8 8 7 6 5 4 4 5 6 5 5 5 6 7 8 8 9 9 9 10 10 11 11 11 12 13 13 13 14 15 15 16 16 17 16 15 14 13 12 10 9 9 9 8
12 10 10 9 9 8 8 6 5 4 3 4 4 4 5 5 5 6 7 7 8 9 9 9 10 11 11 11 11 12 13 13 14 14 15 15 16 16 17 16 16 15 13 12 11 10 8 8 8
11 10 10 9 9 8 8 6 4 3 3 3 3 4 4 5 5 6 6 7 8 9 9 9 10 11 11 11 12 13 13 14 14 15 15 16 16 16 17 17 16 15 13 12 11 9 8 7 7
11 11 9 9 8 8 7 6 4 3 3 3 4 4 4 5 6 6 6 7 8 8 9 10 10 11 12 12 12 13 14 14 15 15 16 16 16 17 17 17 16 14 13 12 11 9 8 7 6
12 11 10 9 8 8 7 5 4 3 2 3 4 4 5 5 6 6 7 7 8 9 9 10 11 11 12 12 13 13 14 15 15 16 16 16 16 16 16 16 15 14 13 12 11 9 8 7 6
11 11 11 9 8 7 6 5 4 3 3 3 4 4 5 6 6 7 7 8 8 9 10 11 12 12 13 13 14 14 14 15 16 16 16 17 16 16 16 16 15 14 13 12 11 10 8 7 7
10 9 8 8 7 5 5 4 4 3 4 4 5 5 5 6 6 7 8 8 9 10 11 12 13 13 13 14 15 15 15 15 16 16 17 17 17 16 16 16 15 14 13 12 11 10 9 8 8
8 7 7 6 5 4 4 5 4 5 4 5 5 6 7 7 7 8 8 8 9 10 11 13 13 14 14 15 16 16 16 17 17 17 17 17 17 17 17 16 15 15 14 13 12 11 10 9 8
6 5 4 4 4 4 4 5 4 5 5 6 6 6 7 8 8 9 9 10 10 11 12 13 14 14 15 16 17 17 18 18 18 18 18 18 18 18 17 17 16 16 15 14 13 12 10 9 9
5 4 4 3 3 3 4 4 4 5 6 6 7 8 9 9 10 10 11 12 12 13 14 15 15 16 17 17 18 18 19 19 19 19 20 20 19 19 18 18 17 16 16 15 14 13 11 10 9
Wind_Direction
242 255 290 15 30 194 201 201 194 193 191 198 201 207 213 224 239 248 259 270 281 292 303 306 306 307 307 310 313 312 309 308 308 306 304 301 298 294 289 285 280 276 273 272 271 270 267 263 260
231 239 244 261 290 244 223 211 206 201 199 199 208 212 222 230 244 249 261 267 275 291 305 306 304 304 306 311 312 312 311 309 309 308 306 305 302 298 295 291 284 280 276 274 271 269 266 261 257
228 232 237 240 241 245 251 211 199 191 200 203 217 231 247 248 256 255 265 272 281 295 304 303 303 305 309 311 311 312 311 312 313 312 311 309 307 304 301 297 291 285 279 276 273 270 265 259 257
225 231 233 234 232 220 231 207 204 211 219 226 242 264 269 267 262 262 270 278 290 297 304 304 304 306 309 310 311 313 314 315 315 314 313 312 310 308 305 302 297 291 284 277 274 271 266 262 255
224 225 227 226 229 233 239 223 207 208 224 244 252 268 275 270 269 265 269 283 294 298 303 307 309 307 308 309 309 313 315 315 314 314 314 314 313 312 308 305 303 297 291 283 276 271 267 262 254
223 224 226 226 230 236 238 229 225 226 237 249 253 265 273 272 269 268 276 288 295 299 303 307 311 307 308 311 310 312 314 314 314 314 315 315 313 312 311 309 305 301 297 290 281 275 268 263 257
221 222 224 225 232 234 240 231 224 229 245 254 259 268 272 268 263 263 275 288 292 299 302 303 309 306 306 307 308 312 313 312 313 314 315 314 312 311 309 308 307 304 300 296 287 279 272 264 258
220 222 224 228 230 235 239 228 225 233 244 255 260 265 268 263 260 262 278 287 289 299 300 297 301 301 303 305 310 314 314 314 315 315 315 314 313 311 309 307 306 305 302 297 291 283 275 266 260
218 218 221 224 228 232 235 233 231 235 242 254 262 267 270 267 267 269 279 285 287 296 296 295 298 300 304 308 311 313 313 314 316 317 317 315 314 312 310 308 306 304 301 297 291 284 276 270 262
215 215 217 220 223 228 235 235 234 235 241 255 266 270 271 268 268 272 279 285 289 297 298 297 299 301 305 310 311 313 315 316 317 317 316 314 314 312 310 308 306 303 301 296 291 285 277 271 263
213 215 215 217 220 227 235 238 237 239 246 257 264 270 272 270 267 272 281 286 289 293 295 295 294 298 303 308 311 315 317 318 319 318 316 315 314 313 311 309 306 303 300 296 291 284 277 271 264
210 212 214 217 224 227 232 236 237 242 251 259 263 267 266 266 263 269 279 283 286 289 291 292 294 297 300 307 313 316 318 319 320 319 318 317 317 315 314 311 309 306 301 297 293 286 280 273 265
207 209 212 216 220 226 230 233 233 243 254 264 266 267 265 263 261 269 277 280 282 286 289 291 294 298 303 309 312 314 316 318 320 320 320 320 319 317 316 313 311 308 303 298 294 287 282 275 266
205 205 208 213 217 222 229 232 236 245 252 260 263 265 269 267 264 272 279 282 282 284 288 291 294 301 306 310 313 314 317 319 320 322 323 323 323 321 319 316 313 311 306 301 295 288 281 274 266
203 204 208 212 215 223 228 237 246 250 255 259 258 263 272 273 270 277 282 282 282 283 288 292 296 302 307 312 315 317 320 321 323 325 325 326 326 325 323 319 317 315 310 304 298 289 281 272 264
202 205 208 211 216 221 229 239 247 246 250 253 256 259 265 272 270 275 280 279 281 282 286 289 295 300 305 312 315 318 321 322 324 328 329 328 328 327 326 323 320 319 314 307 302 292 282 273 266
200 203 208 213 218 219 227 234 240 241 245 250 255 256 261 271 275 276 279 278 280 281 285 287 291 298 304 309 315 320 322 324 326 330 331 332 333 332 329 326 323 322 317 311 305 296 285 274 265
196 201 206 212 214 220 224 226 232 236 238 244 252 256 264 273 277 279 279 280 281 281 283 285 289 296 302 308 314 320 323 325 326 329 333 334 336 336 334 330 327 325 320 313 306 299 287 276 267
191 197 204 207 212 217 213 215 219 222 232 244 262 272 277 281 280 282 281 283 286 286 285 286 290 296 302 307 314 320 323 324 325 328 332 335 337 338 336 332 329 326 323 318 311 301 291 279 269
187 192 196 200 205 204 198 198 206 218 233 253 271 280 286 288 293 290 284 282 283 284 285 286 289 295 299 305 312 318 323 324 325 327 330 334 337 339 337 335 333 331 327 322 316 305 294 282 271
181 185 187 189 184 186 187 196 205 226 243 264 282 289 293 296 296 291 285 284 282 282 285 289 291 294 297 303 309 316 321 324 325 328 330 333 336 339 339 337 336 334 330 326 319 309 299 284 272
175 174 171 169 171 175 178 194 207 225 252 277 295 293 292 294 293 291 287 285 285 285 287 292 294 295 296 301 308 312 318 323 326 328 330 333 335 339 340 339 337 335 332 328 323 313 305 287 273
157 158 159 161 164 168 171 182 191 212 246 273 290 298 299 299 299 295 289 288 288 290 290 292 294 297 298 300 306 310 316 321 324 327 330 331 334 338 339 339 338 336 334 332 327 318 307 293 278
145 145 146 151 155 170 172 180 188 208 236 269 289 298 304 302 302 298 292 290 291 293 295 295 296 298 299 300 304 308 314 319 323 325 328 330 332 335 337 339 338 337 337 336 332 323 309 295 284
141 140 140 147 158 172 176 188 199 215 251 281 291 298 301 301 302 298 292 292 295 297 296 296 297 298 300 299 301 305 310 316 320 323 326 328 331 333 335 337 339 339 338 336 334 327 313 298 286
142 144 149 156 163 168 180 200 212 238 268 281 291 299 304 307 307 304 299 296 296 298 297 296 296 295 298 299 300 303 308 312 316 320 323 325 326 329 332 334 336 336 336 335 333 329 316 301 288
139 144 147 153 157 173 194 207 228 247 263 278 292 300 311 312 314 315 310 304 301 300 298 298 297 297 298 299 301 303 307 310 313 317 320 321 323 324 327 328 330 331 331 330 329 326 319 303 292
137 138 143 150 162 184 197 216 233 248 260 271 283 298 305 309 312 314 314 311 307 304 301 300 302 300 300 299 300 303 305 307 309 312 316 318 319 321 322 323 323 324 324 324 324 321 317 314 303
140 139 138 146 161 182 213 230 245 258 270 277 284 295 298 302 307 310 311 310 309 308 306 304 304 304 303 302 302 303 304 306 308 308 310 313 314 316 318 318 318 318 318 317 318 319 313 310 306
138 144 149 161 177 202 232 244 257 264 272 279 285 290 296 300 302 304 305 306 306 307 307 307 306 305 304 304 304 303 303 303 304 305 307 309 309 310 311 312 312 312 311 310 310 310 308 303 298
Height
5873 5873 5874 5875 5876 5876 5876 5876 5876 5877 5877 5878 5879 5879 5880 5881 5882 5884 5881 5880 5879 5879 5878 5878 5877 5877 5876 5875 5875 5874 5873 5872 5871 5870 5869 5868 5867 5866 5865 5865 5864 5864 5863 5863 5863 5863 5863 5864 5864
5872 5873 5874 5875 5875 5875 5876 5876 5876 5876 5877 5877 5878 5878 5879 5879 5879 5879 5879 5879 5878 5878 5877 5877 5876 5875 5875 5874 5873 5873 5872 5871 5870 5868 5867 5866 5865 5864 5863 5862 5861 5861 5860 5860 5860 5860 5860 5861 5861
5871 5872 5874 5874 5874 5875 5875 5875 5875 5875 5876 5877 5877 5878 5878 5878 5878 5878 5878 5878 5877 5877 5876 5875 5875 5874 5874 5873 5872 5871 5870 5869 5868 5867 5866 5865 5863 5862 5861 5860 5859 5858 5857 5857 5857 5857 5857 5857 5858
5869 5871 5873 5874 5873 5874 5874 5874 5874 5875 5875 5876 5877 5877 5877 5877 5877 5877 5877 5877 5876 5876 5875 5874 5874 5873 5872 5871 5871 5870 5869 5868 5867 5865 5864 5863 5862 5860 5859 5858 5857 5855 5855 5854 5854 5853 5853 5854 5854
5867 5869 5871 5871 5872 5873 5873 5873 5874 5874 5875 5875 5876 5876 5876 5876 5876 5876 5876 5875 5875 5875 5874 5873 5873 5872 5871 5870 5870 5869 5868 5866 5865 5864 5863 5861 5860 5858 5857 5855 5854 5853 5852 5851 5850 5850 5850 5850 5851
5865 5867 5870 5870 5871 5872 5872 5873 5873 5873 5874 5874 5875 5875 5875 5875 5875 5875 5875 5874 5874 5874 5873 5872 5872 5871 5870 5869 5868 5867 5866 5865 5864 5862 5861 5859 5858 5856 5855 5853 5852 5850 5849 5848 5847 5847 5847 5847 5847
5863 5865 5867 5868 5870 5871 5871 5872 5872 5873 5873 5874 5874 5874 5874 5874 5874 5874 5874 5874 5873 5872 5872 5871 5870 5870 5869 5868 5867 5866 5865 5864 5862 5861 5859 5858 5856 5854 5852 5851 5849 5848 5847 5845 5844 5844 5843 5844 5844
5860 5864 5865 5866 5868 5869 5870 5870 5871 5871 5872 5872 5873 5873 5873 5873 5873 5873 5873 5873 5872 5872 5871 5870 5869 5868 5868 5867 5866 5864 5863 5862 5861 5859 5857 5855 5854 5852 5850 5848 5847 5845 5844 5842 5841 5840 5840 5840 5841
5858 5862 5863 5864 5866 5867 5868 5869 5870 5870 5871 5871 5871 5872 5872 5872 5872 5872 5872 5872 5871 5871 5870 5869 5868 5867 5866 5865 5864 5863 5862 5860 5859 5857 5855 5853 5851 5849 5847 5846 5844 5843 5841 5840 5838 5838 5837 5837 5837
5855 5858 5860 5862 5864 5866 5867 5867 5868 5869 5869 5870 5870 5871 5871 5871 5871 5871 5871 5870 5870 5869 5869 5868 5867 5866 5865 5864 5863 5861 5860 5859 5857 5855 5853 5851 5849 5847 5845 5843 5841 5840 5838 5837 5835 5835 5834 5833 5834
5852 5855 5857 5859 5861 5863 5865 5866 5867 5867 5868 5869 5869 5869 5869 5870 5870 5870 5870 5869 5869 5868 5867 5867 5866 5865 5864 5863 5862 5860 5859 5857 5855 5853 5851 5848 5846 5844 5842 5840 5838 5837 5835 5833 5832 5831 5830 5830 5830
5850 5852 5855 5857 5859 5861 5863 5864 5865 5866 5867 5867 5867 5868 5868 5868 5869 5869 5868 5868 5867 5867 5866 5866 5865 5864 5863 5861 5860 5859 5857 5855 5853 5851 5848 5846 5844 5842 5839 5837 5835 5833 5831 5830 5828 5827 5826 5826 5826
5847 5850 5853 5855 5857 5859 5861 5862 5863 5864 5865 5866 5866 5866 5866 5867 5867 5867 5867 5867 5866 5866 5865 5864 5864 5863 5861 5860 5859 5857 5855 5853 5851 5849 5846 5844 5842 5839 5837 5834 5832 5830 5828 5826 5825 5824 5823 5822 5822
5845 5849 5851 5854 5856 5858 5860 5861 5862 5863 5863 5864 5864 5865 5865 5865 5865 5865 5865 5865 5865 5865 5864 5863 5862 5861 5860 5859 5857 5855 5853 5851 5849 5846 5844 5841 5839 5836 5834 5831 5829 5827 5824 5823 5821 5820 5819 5818 5818
5844 5847 5850 5852 5854 5856 5858 5860 5861 5861 5862 5862 5862 5863 5863 5863 5864 5864 5864 5864 5863 5863 5862 5862 5861 5860 5858 5857 5855 5854 5851 5849 5847 5844 5842 5839 5836 5834 5831 5828 5826 5823 5821 5819 5818 5816 5815 5815 5815
5842 5846 5849 5851 5853 5855 5858 5858 5859 5859 5860 5860 5861 5861 5862 5862 5862 5862 5862 5862 5862 5861 5861 5860 5859 5858 5857 5855 5854 5852 5850 5847 5845 5843 5840 5837 5834 5831 5828 5826 5823 5820 5818 5816 5814 5813 5812 5812 5811
5841 5845 5848 5850 5852 5853 5855 5856 5857 5857 5858 5859 5859 5859 5860 5860 5860 5860 5860 5860 5860 5859 5859 5858 5858 5857 5855 5854 5852 5850 5848 5846 5843 5841 5838 5835 5832 5829 5826 5823 5820 5818 5815 5813 5811 5810 5809 5808 5808
5841 5844 5846 5849 5850 5852 5853 5854 5855 5856 5857 5858 5858 5858 5858 5859 5859 5859 5859 5858 5858 5858 5857 5857 5856 5855 5854 5852 5851 5849 5847 5845 5842 5839 5837 5834 5830 5827 5824 5821 5818 5815 5813 5811 5809 5807 5806 5805 5805
5839 5843 5845 5848 5849 5851 5852 5853 5854 5855 5856 5856 5857 5857 5857 5857 5857 5857 5857 5857 5856 5856 5856 5855 5854 5853 5852 5851 5849 5847 5845 5843 5841 5838 5835 5832 5829 5825 5822 5819 5816 5813 5810 5808 5806 5804 5803 5802 5802
5839 5842 5844 5846 5848 5850 5851 5852 5853 5854 5855 5855 5856 5856 5856 5856 5856 5855 5856 5855 5855 5855 5854 5854 5853 5852 5851 5849 5848 5846 5844 5842 5839 5837 5834 5831 5827 5824 5821 5817 5814 5811 5808 5806 5804 5802 5801 5800 5799
5838 5841 5844 5845 5847 5849 5851 5852 5853 5854 5854 5855 5855 5855 5855 5855 5854 5854 5854 5854 5854 5853 5853 5852 5851 5850 5849 5848 5846 5844 5842 5840 5838 5835 5832 5829 5826 5822 5819 5816 5812 5809 5807 5804 5802 5800 5799 5798 5797
5839 5841 5843 5845 5848 5850 5852 5853 5853 5853 5854 5854 5854 5854 5854 5853 5853 5853 5853 5853 5852 5852 5851 5850 5850 5849 5847 5846 5845 5843 5841 5839 5836 5834 5831 5828 5824 5821 5817 5814 5811 5808 5805 5802 5800 5798 5797 5796 5795
5839 5841 5843 5845 5848 5850 5852 5853 5853 5853 5853 5853 5853 5853 5852 5852 5852 5852 5851 5851 5851 5850 5849 5849 5848 5847 5846 5844 5843 5841 5839 5837 5835 5832 5829 5826 5823 5819 5816 5813 5809 5806 5803 5801 5799 5797 5795 5794 5793
5840 5842 5844 5846 5848 5850 5851 5853 5853 5852 5852 5852 5852 5852 5851 5851 5851 5850 5850 5849 5849 5848 5848 5847 5846 5845 5844 5843 5841 5840 5838 5835 5833 5830 5827 5824 5821 5818 5815 5811 5808 5805 5802 5800 5797 5795 5794 5793 5792
5841 5844 5847 5848 5849 5850 5851 5852 5852 5851 5851 5851 5851 5851 5850 5850 5849 5849 5848 5848 5847 5846 5846 5845 5844 5843 5842 5840 5839 5837 5835 5833 5831 5828 5825 5823 5820 5816 5813 5810 5807 5804 5801 5799 5797 5795 5793 5792 5791
5842 5845 5848 5850 5850 5850 5850 5850 5851 5850 5850 5850 5850 5849 5849 5848 5848 5847 5847 5846 5846 5845 5844 5843 5842 5841 5839 5838 5836 5835 5833 5831 5828 5826 5823 5821 5818 5815 5812 5809 5806 5803 5800 5798 5796 5794 5792 5791 5790
5843 5845 5847 5848 5849 5850 5850 5850 5849 5849 5849 5849 5848 5848 5847 5847 5846 5846 5845 5844 5844 5843 5842 5841 5840 5838 5837 5835 5834 5832 5830 5828 5826 5823 5821 5818 5816 5813 5810 5807 5805 5802 5799 5797 5795 5793 5791 5790 5788
5844 5845 5846 5848 5848 5849 5849 5848 5849 5848 5848 5847 5847 5846 5846 5845 5845 5844 5843 5842 5841 5841 5840 5838 5837 5836 5834 5833 5831 5829 5827 5825 5823 5821 5819 5816 5814 5811 5808 5806 5803 5800 5798 5796 5793 5792 5790 5788 5787
5845 5846 5846 5847 5847 5848 5848 5849 5847 5846 5846 5845 5845 5844 5844 5843 5842 5842 5841 5840 5839 5838 5837 5836 5835 5833 5831 5830 5828 5826 5824 5822 5820 5818 5816 5814 5811 5809 5806 5804 5801 5799 5796 5794 5792 5790 5788 5787 5785
5844 5845 5846 5847 5847 5846 5847 5849 5845 5844 5844 5843 5842 5842 5841 5841 5840 5839 5838 5837 5836 5835 5834 5833 5831 5830 5828 5826 5824 5823 5821 5819 5817 5815 5813 5810 5808 5806 5803 5801 5799 5796 5794 5792 5790 5788 5786 5785 5783